VOZ733 YMML-YBCG

Flight info

Callsign VOZ733
Flight time 1h 41m
Altitude 37000
Route NONIX H66 URKER Y54 BERNI
Aircraft B738/M-SDE2E3FGHIRWXY/LB1

Departure

Time 2026-05-06 23:46
Airport Melbourne Airport (YMML)

Arrival

Time 2026-05-07 01:27
Airport Gold Coast Airport (YBCG)
Time Latitude Longitude Altitude Speed Heading
2026-05-06 23:30 -37.67064 144.84674 390 ft 0 kts 171°
2026-05-06 23:39 -37.67062 144.84674 390 ft 2 kts 171°
2026-05-06 23:39 -37.67036 144.84669 390 ft 4 kts 176°
2026-05-06 23:39 -37.67011 144.84671 391 ft 4 kts 204°
2026-05-06 23:40 -37.66999 144.84685 391 ft 2 kts 261°
2026-05-06 23:40 -37.67003 144.84656 391 ft 4 kts 260°
2026-05-06 23:40 -37.67007 144.84623 390 ft 4 kts 261°
2026-05-06 23:40 -37.67011 144.84589 390 ft 4 kts 263°
2026-05-06 23:41 -37.67013 144.84559 389 ft 1 kts 264°
2026-05-06 23:42 -37.67014 144.84542 389 ft 7 kts 266°
2026-05-06 23:42 -37.67036 144.84438 387 ft 18 kts 247°
2026-05-06 23:43 -37.67039 144.84262 384 ft 21 kts 307°
2026-05-06 23:43 -37.66903 144.84210 387 ft 21 kts 352°
2026-05-06 23:43 -37.66763 144.84187 392 ft 20 kts 353°
2026-05-06 23:43 -37.66627 144.84169 398 ft 19 kts
2026-05-06 23:44 -37.66534 144.84275 402 ft 20 kts 72°
2026-05-06 23:44 -37.66509 144.84461 403 ft 24 kts 82°
2026-05-06 23:44 -37.66482 144.84677 406 ft 25 kts 76°
2026-05-06 23:44 -37.66384 144.84780 410 ft 18 kts
2026-05-06 23:45 -37.66262 144.84766 412 ft 18 kts 332°
2026-05-06 23:45 -37.66220 144.84668 412 ft 6 kts 275°
2026-05-06 23:45 -37.66212 144.84554 412 ft 40 kts 275°
2026-05-06 23:45 -37.66172 144.83849 412 ft 118 kts 274°
2026-05-06 23:46 -37.66093 144.82638 893 ft 143 kts 274°
2026-05-06 23:46 -37.66014 144.81417 1961 ft 144 kts 268°
2026-05-06 23:46 -37.65942 144.80142 2787 ft 156 kts 266°
2026-05-06 23:46 -37.65860 144.78648 3162 ft 183 kts 267°
2026-05-06 23:47 -37.65768 144.76920 3403 ft 209 kts 268°
2026-05-06 23:47 -37.65660 144.74993 3717 ft 233 kts 269°
2026-05-06 23:47 -37.65539 144.72898 4285 ft 244 kts 269°
2026-05-06 23:47 -37.65413 144.70759 5247 ft 245 kts 268°
2026-05-06 23:48 -37.65281 144.68642 6232 ft 248 kts 271°
2026-05-06 23:48 -37.64636 144.66546 7059 ft 270 kts 298°
2026-05-06 23:48 -37.63174 144.64945 7887 ft 290 kts 324°
2026-05-06 23:48 -37.61264 144.63982 8728 ft 301 kts 338°
2026-05-06 23:49 -37.59230 144.63247 9553 ft 307 kts 339°
2026-05-06 23:49 -37.57149 144.62533 10360 ft 314 kts 344°
2026-05-06 23:49 -37.54895 144.62488 10745 ft 342 kts 11°
2026-05-06 23:49 -37.52693 144.63803 11045 ft 361 kts 43°
2026-05-06 23:50 -37.51069 144.66203 11718 ft 362 kts 59°
2026-05-06 23:50 -37.48102 144.71395 13159 ft 374 kts 59°
2026-05-06 23:50 -37.46487 144.73996 13888 ft 382 kts 53°
2026-05-06 23:51 -37.44678 144.76487 14547 ft 389 kts 51°
2026-05-06 23:51 -37.42770 144.78953 15122 ft 397 kts 50°
2026-05-06 23:51 -37.40812 144.81447 15717 ft 404 kts 51°
2026-05-06 23:51 -37.38822 144.83993 16311 ft 411 kts 52°
2026-05-06 23:52 -37.36808 144.86594 16876 ft 419 kts 53°
2026-05-06 23:52 -37.34796 144.89213 17434 ft 426 kts 54°
2026-05-06 23:52 -37.32726 144.91918 18020 ft 433 kts 54°
2026-05-06 23:52 -37.30630 144.94665 18597 ft 439 kts 55°
2026-05-06 23:53 -37.28501 144.97459 19085 ft 445 kts 55°
2026-05-06 23:53 -37.26350 145.00274 19687 ft 448 kts 55°
2026-05-06 23:53 -37.24185 145.03098 20273 ft 450 kts 55°
2026-05-06 23:53 -37.22006 145.05943 20868 ft 453 kts 55°
2026-05-06 23:54 -37.19819 145.08802 21443 ft 456 kts 55°
2026-05-06 23:54 -37.17645 145.11641 21995 ft 459 kts 55°
2026-05-06 23:54 -37.15420 145.14536 22549 ft 463 kts 55°
2026-05-06 23:54 -37.13177 145.17455 23072 ft 467 kts 56°
2026-05-06 23:55 -37.10919 145.20398 23605 ft 470 kts 56°
2026-05-06 23:55 -37.08645 145.23356 24093 ft 473 kts 56°
2026-05-06 23:55 -37.06303 145.26276 24551 ft 479 kts 52°
2026-05-06 23:55 -37.03784 145.29046 24988 ft 485 kts 49°
2026-05-06 23:56 -37.01163 145.31730 25436 ft 489 kts 47°
2026-05-06 23:56 -36.98530 145.34353 25869 ft 491 kts 47°
2026-05-06 23:56 -36.95850 145.37017 26296 ft 494 kts 47°
2026-05-06 23:56 -36.93167 145.39708 26727 ft 496 kts 47°
2026-05-06 23:57 -36.90483 145.42426 27160 ft 497 kts 48°
2026-05-06 23:57 -36.87802 145.45165 27582 ft 499 kts 48°
2026-05-06 23:57 -36.85114 145.47925 27976 ft 501 kts 48°
2026-05-06 23:57 -36.82417 145.50701 28372 ft 504 kts 48°
2026-05-06 23:58 -36.79708 145.53486 28755 ft 506 kts 48°
2026-05-06 23:58 -36.76984 145.56287 29124 ft 508 kts 48°
2026-05-06 23:58 -36.74285 145.59058 29469 ft 511 kts 48°
2026-05-06 23:58 -36.71534 145.61877 29813 ft 513 kts 47°
2026-05-06 23:59 -36.68768 145.64708 30152 ft 516 kts 47°
2026-05-06 23:59 -36.65987 145.67551 30446 ft 518 kts 47°
2026-05-06 23:59 -36.63192 145.70403 30715 ft 520 kts 46°
2026-05-06 23:59 -36.60387 145.73263 30964 ft 523 kts 46°
2026-05-07 00:00 -36.57565 145.76136 31221 ft 525 kts 45°
2026-05-07 00:00 -36.54730 145.79020 31484 ft 527 kts 45°
2026-05-07 00:00 -36.51927 145.81871 31731 ft 529 kts 44°
2026-05-07 00:00 -36.50003 145.83826 31913 ft 530 kts 44°
2026-05-07 00:01 -36.46223 145.87663 32338 ft 529 kts 43°
2026-05-07 00:01 -36.43375 145.90549 32718 ft 527 kts 42°
2026-05-07 00:01 -36.40538 145.93422 33091 ft 526 kts 41°
2026-05-07 00:01 -36.37702 145.96290 33423 ft 526 kts 41°
2026-05-07 00:02 -36.34868 145.99153 33724 ft 526 kts 40°
2026-05-07 00:02 -36.32035 146.02014 34055 ft 525 kts 40°
2026-05-07 00:02 -36.29247 146.04828 34372 ft 523 kts 40°
2026-05-07 00:02 -36.26428 146.07670 34665 ft 522 kts 39°
2026-05-07 00:03 -36.23619 146.10501 34989 ft 519 kts 39°
2026-05-07 00:03 -36.20824 146.13313 35307 ft 517 kts 39°
2026-05-07 00:03 -36.18040 146.16113 35606 ft 514 kts 39°
2026-05-07 00:03 -36.15266 146.18900 35903 ft 512 kts 38°
2026-05-07 00:04 -36.12506 146.21670 36198 ft 510 kts 38°
2026-05-07 00:04 -36.09758 146.24425 36499 ft 507 kts 38°
2026-05-07 00:04 -36.07061 146.27129 36803 ft 505 kts 38°
2026-05-07 00:04 -36.04337 146.29855 37112 ft 502 kts 37°
2026-05-07 00:05 -36.01624 146.32565 37266 ft 503 kts 37°
2026-05-07 00:05 -35.98894 146.35291 37242 ft 505 kts 37°
2026-05-07 00:05 -35.93436 146.40740 37235 ft 503 kts 37°
2026-05-07 00:06 -35.88027 146.46126 37237 ft 498 kts 37°
2026-05-07 00:06 -35.82690 146.51431 37236 ft 495 kts 36°
2026-05-07 00:07 -35.77335 146.56739 37249 ft 493 kts 36°
2026-05-07 00:07 -35.71991 146.62032 37242 ft 493 kts 36°
2026-05-07 00:08 -35.66645 146.67321 37246 ft 493 kts 36°
2026-05-07 00:08 -35.61320 146.72573 37252 ft 495 kts 36°
2026-05-07 00:09 -35.55934 146.77876 37244 ft 497 kts 35°
2026-05-07 00:09 -35.50522 146.83196 37246 ft 500 kts 35°
2026-05-07 00:10 -35.45079 146.88540 37241 ft 502 kts 35°
2026-05-07 00:10 -35.39652 146.93859 37243 ft 504 kts 35°
2026-05-07 00:11 -35.34170 146.99223 37242 ft 505 kts 34°
2026-05-07 00:11 -35.28673 147.04587 37242 ft 506 kts 34°
2026-05-07 00:12 -35.23165 147.09954 37242 ft 506 kts 34°
2026-05-07 00:12 -35.17693 147.15279 37238 ft 506 kts 34°
2026-05-07 00:13 -35.12189 147.20626 37231 ft 505 kts 34°
2026-05-07 00:13 -35.06696 147.25950 37235 ft 503 kts 34°
2026-05-07 00:14 -35.01212 147.31254 37231 ft 502 kts 33°
2026-05-07 00:14 -34.95782 147.36498 37236 ft 501 kts 33°
2026-05-07 00:15 -34.90325 147.41760 37246 ft 499 kts 33°
2026-05-07 00:15 -34.84881 147.46996 37233 ft 498 kts 33°
2026-05-07 00:16 -34.79450 147.52216 37234 ft 497 kts 33°
2026-05-07 00:16 -34.74065 147.57383 37238 ft 496 kts 33°
2026-05-07 00:17 -34.68650 147.62569 37241 ft 495 kts 33°
2026-05-07 00:17 -34.63236 147.67744 37235 ft 495 kts 32°
2026-05-07 00:18 -34.57822 147.72909 37235 ft 495 kts 32°
2026-05-07 00:18 -34.52441 147.78033 37237 ft 495 kts 32°
2026-05-07 00:19 -34.47021 147.83187 37237 ft 495 kts 32°
2026-05-07 00:19 -34.41596 147.88335 37235 ft 495 kts 32°
2026-05-07 00:20 -34.36175 147.93473 37234 ft 495 kts 32°
2026-05-07 00:20 -34.30788 147.98571 37240 ft 495 kts 31°
2026-05-07 00:21 -34.25368 148.03693 37238 ft 494 kts 31°
2026-05-07 00:21 -34.19956 148.08797 37230 ft 493 kts 31°
2026-05-07 00:22 -34.14555 148.13882 37233 ft 492 kts 31°
2026-05-07 00:22 -34.09193 148.18912 37232 ft 491 kts 31°
2026-05-07 00:23 -34.03810 148.23967 37234 ft 490 kts 30°
2026-05-07 00:23 -33.98432 148.29005 37234 ft 489 kts 30°
2026-05-07 00:24 -33.93068 148.34023 37229 ft 488 kts 30°
2026-05-07 00:24 -33.87742 148.38995 37226 ft 487 kts 30°
2026-05-07 00:25 -33.82385 148.43989 37219 ft 487 kts 29°
2026-05-07 00:25 -33.77039 148.48964 37231 ft 486 kts 29°
2026-05-07 00:26 -33.71690 148.53928 37232 ft 486 kts 29°
2026-05-07 00:26 -33.66367 148.58864 37221 ft 487 kts 29°
2026-05-07 00:27 -33.60997 148.63837 37216 ft 488 kts 28°
2026-05-07 00:27 -33.55588 148.68832 37228 ft 494 kts 29°
2026-05-07 00:28 -33.50104 148.73891 37234 ft 501 kts 29°
2026-05-07 00:28 -33.44606 148.78961 37219 ft 503 kts 29°
2026-05-07 00:29 -33.39051 148.84080 37217 ft 504 kts 28°
2026-05-07 00:30 -33.27944 148.94280 37196 ft 501 kts 28°
2026-05-07 00:30 -33.22469 148.99296 37188 ft 498 kts 28°
2026-05-07 00:31 -33.16991 149.04303 37182 ft 494 kts 28°
2026-05-07 00:31 -33.11551 149.09262 37182 ft 490 kts 27°
2026-05-07 00:32 -33.06145 149.14186 37186 ft 487 kts 27°
2026-05-07 00:32 -33.00808 149.19041 37179 ft 484 kts 27°
2026-05-07 00:33 -32.95460 149.23900 37165 ft 483 kts 27°
2026-05-07 00:33 -32.90127 149.28734 37179 ft 481 kts 27°
2026-05-07 00:34 -32.84800 149.33555 37170 ft 481 kts 26°
2026-05-07 00:34 -32.79469 149.38373 37172 ft 482 kts 26°
2026-05-07 00:35 -32.74164 149.43161 37167 ft 482 kts 26°
2026-05-07 00:35 -32.68815 149.47980 37168 ft 483 kts 26°
2026-05-07 00:36 -32.63460 149.52795 37165 ft 483 kts 26°
2026-05-07 00:36 -32.58099 149.57611 37163 ft 483 kts 26°
2026-05-07 00:37 -32.52754 149.62316 37158 ft 480 kts 24°
2026-05-07 00:37 -32.47301 149.66880 37155 ft 479 kts 23°
2026-05-07 00:38 -32.41844 149.71414 37148 ft 480 kts 23°
2026-05-07 00:38 -32.36440 149.75941 37160 ft 479 kts 23°
2026-05-07 00:39 -32.31004 149.80497 37152 ft 479 kts 23°
2026-05-07 00:39 -32.25573 149.85041 37153 ft 478 kts 23°
2026-05-07 00:40 -32.20147 149.89575 37159 ft 477 kts 23°
2026-05-07 00:40 -32.14766 149.94071 37153 ft 477 kts 23°
2026-05-07 00:41 -32.09357 149.98579 37162 ft 476 kts 23°
2026-05-07 00:41 -32.03951 150.03074 37145 ft 475 kts 23°
2026-05-07 00:42 -31.98552 150.07556 37149 ft 474 kts 23°
2026-05-07 00:42 -31.93198 150.11997 37156 ft 474 kts 23°
2026-05-07 00:43 -31.87803 150.16464 37149 ft 474 kts 23°
2026-05-07 00:43 -31.82401 150.20932 37158 ft 475 kts 23°
2026-05-07 00:44 -31.76989 150.25401 37149 ft 475 kts 23°
2026-05-07 00:44 -31.71619 150.29827 37152 ft 474 kts 23°
2026-05-07 00:45 -31.66217 150.34267 37154 ft 474 kts 23°
2026-05-07 00:45 -31.60841 150.38738 37149 ft 478 kts 27°
2026-05-07 00:46 -31.55798 150.43935 37149 ft 484 kts 31°
2026-05-07 00:46 -31.51668 150.48357 37154 ft 483 kts 31°
2026-05-07 00:47 -31.45883 150.54497 37159 ft 482 kts 31°
2026-05-07 00:47 -31.40896 150.59734 37160 ft 481 kts 31°
2026-05-07 00:48 -31.35902 150.64950 37160 ft 481 kts 31°
2026-05-07 00:48 -31.30906 150.70159 37158 ft 481 kts 31°
2026-05-07 00:49 -31.25939 150.75332 37161 ft 481 kts 31°
2026-05-07 00:49 -31.20936 150.80534 37148 ft 482 kts 30°
2026-05-07 00:50 -31.15929 150.85731 37150 ft 482 kts 30°
2026-05-07 00:50 -31.10920 150.90927 37161 ft 482 kts 30°
2026-05-07 00:51 -31.05941 150.96084 37158 ft 482 kts 30°
2026-05-07 00:51 -31.00919 151.01279 37156 ft 483 kts 30°
2026-05-07 00:52 -30.95897 151.06469 37154 ft 482 kts 30°
2026-05-07 00:52 -30.90869 151.11656 37157 ft 483 kts 30°
2026-05-07 00:53 -30.85878 151.16796 37153 ft 482 kts 30°
2026-05-07 00:53 -30.81700 151.21093 37157 ft 482 kts 30°
2026-05-07 00:54 -30.76678 151.26252 37156 ft 482 kts 30°
2026-05-07 00:54 -30.71655 151.31403 37149 ft 482 kts 30°
2026-05-07 00:55 -30.66630 151.36548 37141 ft 481 kts 30°
2026-05-07 00:55 -30.61605 151.41687 37144 ft 481 kts 30°
2026-05-07 00:56 -30.56620 151.46777 37132 ft 480 kts 30°
2026-05-07 00:56 -30.51604 151.51894 37139 ft 480 kts 30°
2026-05-07 00:57 -30.46586 151.57003 37124 ft 480 kts 30°
2026-05-07 00:57 -30.41567 151.62106 37131 ft 480 kts 30°
2026-05-07 00:58 -30.36700 151.67404 37114 ft 488 kts 34°
2026-05-07 00:58 -30.32004 151.73107 37116 ft 490 kts 36°
2026-05-07 00:59 -30.25017 151.81637 37098 ft 479 kts 35°
2026-05-07 01:00 -30.20414 151.87155 37108 ft 475 kts 34°
2026-05-07 01:00 -30.18142 151.89854 36896 ft 477 kts 34°
2026-05-07 01:00 -30.15836 151.92593 36582 ft 472 kts 34°
2026-05-07 01:00 -30.13563 151.95303 36203 ft 467 kts 34°
2026-05-07 01:01 -30.11314 151.97985 35821 ft 463 kts 34°
2026-05-07 01:01 -30.09079 152.00646 35432 ft 459 kts 34°
2026-05-07 01:01 -30.06863 152.03282 35045 ft 456 kts 34°
2026-05-07 01:01 -30.04662 152.05898 34662 ft 453 kts 34°
2026-05-07 01:02 -30.02474 152.08494 34287 ft 450 kts 34°
2026-05-07 01:02 -30.00327 152.11040 33869 ft 448 kts 34°
2026-05-07 01:02 -29.98163 152.13604 33458 ft 445 kts 35°
2026-05-07 01:02 -29.96009 152.16156 33037 ft 443 kts 35°
2026-05-07 01:03 -29.93868 152.18690 32652 ft 439 kts 35°
2026-05-07 01:03 -29.91745 152.21204 32279 ft 436 kts 36°
2026-05-07 01:03 -29.89639 152.23696 31904 ft 432 kts 36°
2026-05-07 01:03 -29.87550 152.26167 31547 ft 429 kts 36°
2026-05-07 01:04 -29.85509 152.28577 31260 ft 423 kts 36°
2026-05-07 01:04 -29.83470 152.30986 31028 ft 416 kts 36°
2026-05-07 01:04 -29.81458 152.33357 30739 ft 412 kts 37°
2026-05-07 01:04 -29.79463 152.35707 30400 ft 409 kts 37°
2026-05-07 01:05 -29.77476 152.38037 30036 ft 406 kts 37°
2026-05-07 01:05 -29.75503 152.40350 29628 ft 404 kts 36°
2026-05-07 01:05 -29.73543 152.42647 29253 ft 400 kts 36°
2026-05-07 01:05 -29.71601 152.44924 28861 ft 397 kts 37°
2026-05-07 01:06 -29.69698 152.47155 28492 ft 394 kts 37°
2026-05-07 01:06 -29.67785 152.49397 28131 ft 391 kts 37°
2026-05-07 01:06 -29.65887 152.51621 27756 ft 388 kts 37°
2026-05-07 01:06 -29.64006 152.53823 27423 ft 385 kts 36°
2026-05-07 01:07 -29.62131 152.56015 27059 ft 383 kts 36°
2026-05-07 01:07 -29.60267 152.58193 26704 ft 382 kts 36°
2026-05-07 01:07 -29.58408 152.60362 26349 ft 380 kts 36°
2026-05-07 01:07 -29.56556 152.62524 25994 ft 378 kts 36°
2026-05-07 01:08 -29.54740 152.64641 25643 ft 377 kts 36°
2026-05-07 01:08 -29.52907 152.66778 25303 ft 375 kts 36°
2026-05-07 01:08 -29.51081 152.68904 24949 ft 373 kts 36°
2026-05-07 01:08 -29.49261 152.71021 24603 ft 372 kts 36°
2026-05-07 01:09 -29.47445 152.73132 24252 ft 371 kts 36°
2026-05-07 01:09 -29.45637 152.75236 23909 ft 370 kts 37°
2026-05-07 01:09 -29.43831 152.77337 23532 ft 370 kts 36°
2026-05-07 01:09 -29.42021 152.79437 23139 ft 369 kts 37°
2026-05-07 01:10 -29.40247 152.81498 22768 ft 367 kts 37°
2026-05-07 01:10 -29.38462 152.83572 22432 ft 364 kts 37°
2026-05-07 01:10 -29.36691 152.85632 22073 ft 361 kts 37°
2026-05-07 01:10 -29.34935 152.87672 21741 ft 358 kts 37°
2026-05-07 01:11 -29.33187 152.89696 21405 ft 356 kts 37°
2026-05-07 01:11 -29.31450 152.91707 21066 ft 354 kts 37°
2026-05-07 01:11 -29.29721 152.93704 20738 ft 352 kts 37°
2026-05-07 01:11 -29.28000 152.95692 20398 ft 351 kts 38°
2026-05-07 01:12 -29.26311 152.97645 20074 ft 349 kts 38°
2026-05-07 01:12 -29.24607 152.99616 19744 ft 347 kts 38°
2026-05-07 01:12 -29.22911 153.01576 19416 ft 346 kts 38°
2026-05-07 01:12 -29.21217 153.03527 19089 ft 345 kts 38°
2026-05-07 01:13 -29.19531 153.05474 18762 ft 343 kts 39°
2026-05-07 01:13 -29.17854 153.07412 18430 ft 343 kts 39°
2026-05-07 01:13 -29.16178 153.09343 18070 ft 341 kts 39°
2026-05-07 01:13 -29.14507 153.11267 17708 ft 340 kts 39°
2026-05-07 01:14 -29.12870 153.13153 17370 ft 338 kts 39°
2026-05-07 01:14 -29.11220 153.15052 17037 ft 335 kts 39°
2026-05-07 01:14 -29.09581 153.16938 16720 ft 333 kts 39°
2026-05-07 01:14 -29.07953 153.18814 16400 ft 331 kts 40°
2026-05-07 01:15 -29.06332 153.20680 16086 ft 330 kts 39°
2026-05-07 01:15 -29.04720 153.22534 15761 ft 328 kts 40°
2026-05-07 01:15 -29.03119 153.24377 15452 ft 326 kts 40°
2026-05-07 01:15 -29.01527 153.26207 15147 ft 324 kts 40°
2026-05-07 01:16 -28.99962 153.28002 14834 ft 323 kts 40°
2026-05-07 01:16 -28.98372 153.29826 14532 ft 327 kts 40°
2026-05-07 01:16 -28.96694 153.31740 14221 ft 359 kts 40°
2026-05-07 01:16 -28.94863 153.33827 13833 ft 378 kts 40°
2026-05-07 01:17 -28.93004 153.35962 13412 ft 379 kts 41°
2026-05-07 01:17 -28.91160 153.38087 13009 ft 375 kts 41°
2026-05-07 01:17 -28.89331 153.40186 12634 ft 371 kts 40°
2026-05-07 01:17 -28.87516 153.42263 12269 ft 368 kts 40°
2026-05-07 01:18 -28.85737 153.44297 11914 ft 365 kts 40°
2026-05-07 01:18 -28.83900 153.46272 11537 ft 359 kts 31°
2026-05-07 01:18 -28.81726 153.47526 11226 ft 346 kts 16°
2026-05-07 01:18 -28.79481 153.48500 10855 ft 345 kts 16°
2026-05-07 01:19 -28.77243 153.49472 10492 ft 344 kts 16°
2026-05-07 01:19 -28.75016 153.50448 10201 ft 341 kts 17°
2026-05-07 01:19 -28.72820 153.51420 10024 ft 339 kts 17°
2026-05-07 01:19 -28.70607 153.52403 9636 ft 343 kts 17°
2026-05-07 01:20 -28.68388 153.53394 9269 ft 342 kts 17°
2026-05-07 01:20 -28.66206 153.54369 8903 ft 341 kts 17°
2026-05-07 01:20 -28.63999 153.55347 8533 ft 340 kts 17°
2026-05-07 01:20 -28.61798 153.56323 8180 ft 339 kts 17°
2026-05-07 01:21 -28.59596 153.57298 7811 ft 339 kts 17°
2026-05-07 01:21 -28.57401 153.58270 7456 ft 338 kts 18°
2026-05-07 01:21 -28.55209 153.59238 7108 ft 337 kts 18°
2026-05-07 01:21 -28.53022 153.60206 6764 ft 337 kts 18°
2026-05-07 01:22 -28.50825 153.61121 6394 ft 336 kts 15°
2026-05-07 01:22 -28.48634 153.61934 6037 ft 336 kts 15°
2026-05-07 01:22 -28.46412 153.62749 5665 ft 336 kts 15°
2026-05-07 01:22 -28.44193 153.63573 5310 ft 335 kts 15°
2026-05-07 01:23 -28.41978 153.64402 4959 ft 335 kts 14°
2026-05-07 01:23 -28.39716 153.64677 4560 ft 324 kts 349°
2026-05-07 01:23 -28.37591 153.63972 4257 ft 314 kts 334°
2026-05-07 01:23 -28.35654 153.62868 3927 ft 310 kts 328°
2026-05-07 01:24 -28.33794 153.61648 3596 ft 309 kts 327°
2026-05-07 01:24 -28.31972 153.60456 3280 ft 303 kts 328°
2026-05-07 01:24 -28.30151 153.59292 2908 ft 297 kts 328°
2026-05-07 01:24 -28.28384 153.58170 2522 ft 285 kts 328°
2026-05-07 01:25 -28.26683 153.57086 2162 ft 277 kts 329°
2026-05-07 01:25 -28.25056 153.56054 1797 ft 256 kts 329°
2026-05-07 01:25 -28.23579 153.55115 1459 ft 232 kts 329°
2026-05-07 01:25 -28.22235 153.54260 1168 ft 210 kts 329°
2026-05-07 01:26 -28.21023 153.53489 917 ft 192 kts 329°
2026-05-07 01:26 -28.19908 153.52777 684 ft 176 kts 330°
2026-05-07 01:26 -28.18897 153.52133 478 ft 161 kts 330°
2026-05-07 01:26 -28.17954 153.51534 221 ft 149 kts 331°
2026-05-07 01:27 -28.17053 153.50965 38 ft 147 kts 332°
2026-05-07 01:27 -28.16260 153.50460 26 ft 104 kts 330°
2026-05-07 01:27 -28.15818 153.50178 29 ft 41 kts 332°
2026-05-07 01:27 -28.15648 153.50124 25 ft 21 kts 37°
2026-05-07 01:28 -28.15629 153.50266 28 ft 20 kts 134°
2026-05-07 01:28 -28.15746 153.50347 26 ft 20 kts 150°
2026-05-07 01:28 -28.15873 153.50429 27 ft 23 kts 150°
2026-05-07 01:28 -28.16030 153.50528 26 ft 29 kts 151°
2026-05-07 01:29 -28.16218 153.50649 26 ft 32 kts 150°
2026-05-07 01:29 -28.16412 153.50772 26 ft 31 kts 150°
2026-05-07 01:29 -28.16595 153.50888 27 ft 29 kts 150°
2026-05-07 01:29 -28.16768 153.50998 26 ft 28 kts 150°
2026-05-07 01:30 -28.16927 153.51099 29 ft 26 kts 150°
2026-05-07 01:30 -28.17073 153.51203 27 ft 23 kts 123°
2026-05-07 01:30 -28.17007 153.51254 26 ft 16 kts 335°
2026-05-07 01:30 -28.16925 153.51204 26 ft 12 kts 330°
2026-05-07 01:31 -28.16867 153.51192 26 ft 5 kts 44°
2026-05-07 01:31 -28.16841 153.51237 26 ft 4 kts 61°
2026-05-07 01:31 -28.16839 153.51242 26 ft 0 kts 61°